Alexandria Esle, LA

11:36 PM CST on December 12, 2017 (GMT -0600)
Alexandria Esler Regional

Weather History for KESF - June, 2013

Change the Weather History Date:

Monday, June 24, 2013

  Actual Average Record
Temperature  
Mean Temperature 83 °F -  
Max Temperature 93 °F 90 °F 100 °F (2012)
Min Temperature 73 °F 69 °F 61 °F (2001)
Cooling Degree Days 18    
Growing Degree Days 33 (Base 50)    
Moisture  
Dew Point 73 °F    
Average Humidity 81    
Maximum Humidity 94    
Minimum Humidity 47    
Precipitation  
Precipitation 0.30 in - - ()
Sea Level Pressure  
Sea Level Pressure 30.07 in    
Wind  
Wind Speed 3 mph (SW)    
Max Wind Speed 18 mph    
Max Gust Speed 30 mph    
Visibility 7 miles    
Events Rain , Thunderstorm    
Averages and records for this station are not official NWS values.
T = Trace of Precipitation, MM = Missing Value Source: NWS Daily Summary

Daily Weather History Graph

Daily Weather History Graph

Search for Another Location

Airport or City:

Trip Planner

Search our weather history database for the weather conditions in past years. The results will help you decide how hot, cold, wet, or windy it might be!

Date:

Astronomy

Jun. 24, 2013 Rise Set
Actual Time 6:06 AM CDT 8:17 PM CDT
Civil Twilight 5:37 AM CDT 8:45 PM CDT
Nautical Twilight 5:03 AM CDT 9:19 PM CDT
Astronomical Twilight 4:26 AM CDT 9:56 PM CDT
Moon 9:28 PM CDT (6/24) 7:27 AM CDT (6/24)
Length of Visible Light 15h 07m
Length of Day
14h 11m
Full, 98% of the Moon is Illuminated
Jun 24
Full
Jun 29
Last Quarter
Jul 8
New
Jul 15
First Quarter
Jul 22
Full

Hourly Weather History & Observations

Time (CDT) Temp. Heat Index Dew Point Humidity Pressure Visibility Wind Dir Wind Speed Gust Speed Precip Events Conditions
12:53 AM 73.9 °F - 72.0 °F 93% 30.04 in 7.0 mi Calm Calm - N/A   Clear
1:53 AM 73.9 °F - 72.0 °F 93% 30.05 in 7.0 mi Calm Calm - N/A   Clear
2:53 AM 73.0 °F - 71.1 °F 93% 30.05 in 6.0 mi Calm Calm - N/A   Clear
3:53 AM 73.0 °F - 71.1 °F 93% 30.05 in 6.0 mi Calm Calm - N/A   Clear
4:53 AM 73.0 °F - 71.1 °F 93% 30.06 in 5.0 mi Calm Calm - N/A   Clear
5:53 AM 73.0 °F - 71.1 °F 93% 30.07 in 4.0 mi Calm Calm - N/A   Clear
6:10 AM 73.4 °F - 71.6 °F 94% 30.08 in 1.5 mi Calm Calm - N/A   Clear
6:28 AM 73.4 °F - 71.6 °F 94% 30.08 in 3.0 mi Calm Calm - N/A   Clear
6:53 AM 75.0 °F - 72.0 °F 90% 30.08 in 4.0 mi Calm Calm - N/A   Clear
7:53 AM 79.0 °F - 75.0 °F 88% 30.10 in 10.0 mi Calm Calm - N/A   Clear
8:53 AM 82.9 °F 90.2 °F 75.0 °F 77% 30.12 in 10.0 mi SSE 3.5 mph - N/A   Clear
9:53 AM 86.0 °F 95.1 °F 75.0 °F 70% 30.11 in 10.0 mi South 4.6 mph - N/A   Clear
10:53 AM 88.0 °F 96.5 °F 73.9 °F 63% 30.11 in 10.0 mi SW 6.9 mph - N/A   Mostly Cloudy
11:04 AM 87.8 °F 95.6 °F 73.4 °F 62% 30.12 in 10.0 mi SSW 9.2 mph - N/A   Mostly Cloudy
11:53 AM 89.1 °F 98.0 °F 73.9 °F 61% 30.11 in 10.0 mi South 5.8 mph - N/A   Scattered Clouds
12:53 PM 91.0 °F 100.4 °F 73.9 °F 57% 30.08 in 10.0 mi Variable 4.6 mph - N/A   Partly Cloudy
1:53 PM 91.9 °F 100.7 °F 73.0 °F 54% 30.06 in 10.0 mi South 9.2 mph - N/A   Partly Cloudy
2:53 PM 91.9 °F 100.7 °F 73.0 °F 54% 30.05 in 10.0 mi South 9.2 mph - N/A   Scattered Clouds
3:53 PM 93.9 °F 100.8 °F 71.1 °F 47% 30.04 in 10.0 mi SSE 6.9 mph - N/A   Clear
4:34 PM 78.8 °F - 73.4 °F 83% 30.05 in 2.5 mi West 18.4 mph 29.9 mph 0.13 in Rain Heavy Rain
4:42 PM 77.0 °F - 69.8 °F 78% 30.05 in 1.0 mi WNW 17.3 mph 26.5 mph 0.29 in Rain Heavy Rain
4:48 PM 77.0 °F - 71.6 °F 83% 30.05 in 3.0 mi WNW 8.1 mph - 0.30 in Rain Light Rain
4:53 PM 78.1 °F - 72.0 °F 81% 30.05 in 9.0 mi NW 6.9 mph - 0.30 in Rain Light Rain
5:53 PM 82.0 °F 89.4 °F 75.9 °F 82% 30.04 in 10.0 mi Calm Calm - 0.00 in   Mostly Cloudy
6:50 PM 80.6 °F 86.2 °F 75.2 °F 84% 30.05 in 10.0 mi SW 18.4 mph 27.6 mph N/A Thunderstorm Partly Cloudy
6:53 PM 80.1 °F 84.5 °F 73.9 °F 81% 30.05 in 10.0 mi SW 18.4 mph 27.6 mph N/A Thunderstorm Partly Cloudy
7:05 PM 78.8 °F - 73.4 °F 83% 30.05 in 10.0 mi SW 10.4 mph 18.4 mph N/A   Scattered Clouds
7:53 PM 78.1 °F - 73.0 °F 84% 30.04 in 10.0 mi West 4.6 mph - 0.00 in   Scattered Clouds
8:53 PM 75.0 °F - 73.0 °F 94% 30.02 in 9.0 mi Calm Calm - N/A   Clear
9:53 PM 75.0 °F - 72.0 °F 90% 30.04 in 7.0 mi ENE 3.5 mph - N/A   Clear
10:53 PM 73.9 °F - 72.0 °F 93% 30.07 in 7.0 mi Calm Calm - N/A   Clear
11:53 PM 73.0 °F - 71.1 °F 93% 30.07 in 5.0 mi Calm Calm - N/A   Clear